EW9790 Weather Reports


time (UTC)temp
C
wind
direction
speed
KPH
gust
KPH
rain 1hr
cm
rain 24hr
cm
rain mn
cm
humidity
%
barometer
mb
20260510205128 28 233 1.6 9.7 0.00 0.00 0.00 51 1014.7
20260510204901 28 32 1.6 8.0 0.00 0.00 0.00 50 1014.6
20260510204129 28 326 1.6 9.7 0.00 0.00 0.00 52 1014.6
20260510203630 27 290 3.2 9.7 0.00 0.00 0.00 54 1014.7
20260510203128 27 255 3.2 8.0 0.00 0.00 0.00 56 1014.8
20260510202627 27 278 1.6 6.4 0.00 0.00 0.00 56 1014.7
20260510202126 27 287 1.6 8.0 0.00 0.00 0.00 57 1014.8
20260510201626 27 269 3.2 9.7 0.00 0.00 0.00 56 1014.9
20260510201127 27 344 1.6 9.7 0.00 0.00 0.00 55 1014.8
20260510200627 28 266 1.6 4.8 0.00 0.00 0.00 53 1014.9
20260510200126 28 43 1.6 4.8 0.00 0.00 0.00 54 1014.9
20260510195626 27 338 1.6 4.8 0.00 0.00 0.00 54 1015.0
20260510195126 27 255 0.0 3.2 0.00 0.00 0.00 54 1015.1
20260510194628 27 280 1.6 6.4 0.00 0.00 0.00 58 1015.2
20260510194126 27 264 1.6 6.4 0.00 0.00 0.00 56 1015.2
20260510193624 27 252 1.6 4.8 0.00 0.00 0.00 53 1015.2
20260510193356 27 27 1.6 4.8 0.00 0.00 0.00 55 1015.3
20260510192624 27 245 1.6 4.8 0.00 0.00 0.00 53 1015.2
20260510192125 28 249 1.6 4.8 0.00 0.00 0.00 53 1015.2
20260510191624 28 91 0.0 4.8 0.00 0.00 0.00 56 1015.2
20260510191125 28 202 1.6 6.4 0.00 0.00 0.00 49 1015.1
20260510190623 28 1 1.6 6.4 0.00 0.00 0.00 53 1015.1
20260510190126 28 94 1.6 4.8 0.00 0.00 0.00 51 1015.1
20260510185853 28 229 1.6 4.8 0.00 0.00 0.00 52 1015.1
20260510185121 27 255 1.6 3.2 0.00 0.00 0.00 57 1015.2
20260510184623 27 259 1.6 3.2 0.00 0.00 0.00 50 1015.2
20260510184351 27 302 0.0 4.8 0.00 0.00 0.00 52 1015.2
20260510183621 27 255 1.6 6.4 0.00 0.00 0.00 57 1015.2
20260510183121 27 32 1.6 6.4 0.00 0.00 0.00 52 1015.2
20260510182617 27 266 0.0 6.4 0.00 0.00 0.00 52 1015.1
20260510182117 27 274 1.6 6.4 0.00 0.00 0.00 56 1015.1
20260510181850 27 357 1.6 4.8 0.00 0.00 0.00 49 1015.1
20260510181117 27 245 1.6 6.4 0.00 0.00 0.00 52 1015.1
20260510180618 27 259 1.6 6.4 0.00 0.00 0.00 50 1015.1
20260510180117 27 266 1.6 4.8 0.00 0.00 0.00 54 1015.2
20260510175851 27 311 1.6 9.7 0.00 0.00 0.00 54 1015.2
20260510175117 27 254 1.6 9.7 0.00 0.00 0.00 53 1015.3
20260510174617 27 27 1.6 8.0 0.00 0.00 0.00 55 1015.3
20260510174116 27 8 0.0 1.6 0.00 0.00 0.00 50 1015.3
20260510173616 26 281 1.6 6.4 0.00 0.00 0.00 58 1015.4
20260510173117 26 263 1.6 6.4 0.00 0.00 0.00 54 1015.5
20260510172615 26 228 1.6 4.8 0.00 0.00 0.00 53 1015.4
20260510172116 26 269 1.6 6.4 0.00 0.00 0.00 54 1015.5
20260510171845 26 253 1.6 6.4 0.00 0.00 0.00 56 1015.6
20260510171115 26 255 1.6 6.4 0.00 0.00 0.00 52 1015.6
20260510170615 26 246 1.6 6.4 0.00 0.00 0.00 54 1015.7
20260510170114 26 250 1.6 6.4 0.00 0.00 0.00 54 1015.6
20260510165613 26 264 1.6 6.4 0.00 0.00 0.00 55 1015.6
20260510165112 26 260 1.6 6.4 0.00 0.00 0.00 50 1015.6
20260510164612 27 311 1.6 6.4 0.00 0.00 0.00 55 1015.5
20260510164112 27 276 1.6 6.4 0.00 0.00 0.00 54 1015.6
20260510163612 26 266 1.6 6.4 0.00 0.00 0.00 55 1015.6
20260510163112 26 261 1.6 6.4 0.00 0.00 0.00 54 1015.7
20260510162612 26 332 1.6 3.2 0.00 0.00 0.00 57 1015.7
20260510162113 26 280 1.6 6.4 0.00 0.00 0.00 55 1015.7
20260510161613 26 23 1.6 8.0 0.00 0.00 0.00 58 1015.7
20260510161112 26 255 1.6 8.0 0.00 0.00 0.00 58 1015.8
20260510160612 26 297 1.6 8.0 0.00 0.00 0.00 58 1015.8
20260510160117 26 264 0.0 4.8 0.00 0.00 0.00 56 1015.8
20260510160112 25 280 1.6 8.0 0.00 0.00 0.00 59 1015.7
20260510155112 26 295 1.6 4.8 0.00 0.00 0.00 58 1015.6
20260510154612 26 252 1.6 8.0 0.00 0.00 0.00 58 1015.6
20260510154348 26 249 0.0 1.6 0.00 0.00 0.00 59 1015.4
20260510154112 26 249 0.0 8.0 0.00 0.00 0.00 55 1015.5
20260510153343 26 249 0.0 3.2 0.00 0.00 0.00 61 1015.4
20260510152613 25 249 0.0 3.2 0.00 0.00 0.00 57 1015.3
20260510152112 25 231 0.0 1.6 0.00 0.00 0.00 60 1015.2
20260510151613 25 247 0.0 4.8 0.00 0.00 0.00 59 1015.2
20260510151111 25 256 1.6 4.8 0.00 0.00 0.00 60 1015.2
20260510150611 25 226 0.0 3.2 0.00 0.00 0.00 62 1015.1
20260510150342 24 224 1.6 6.4 0.00 0.00 0.00 61 1015.1
20260510145845 24 236 1.6 6.4 0.00 0.00 0.00 62 1015.2
20260510145113 23 130 1.6 4.8 0.00 0.00 0.00 63 1015.2
20260510144612 23 219 1.6 4.8 0.00 0.00 0.00 67 1015.1
20260510144342 23 113 1.6 4.8 0.00 0.00 0.00 65 1014.9
20260510143611 23 91 1.6 4.8 0.00 0.00 0.00 66 1015.0
20260510143111 23 113 1.6 4.8 0.00 0.00 0.00 67 1015.0
20260510142613 23 207 0.0 3.2 0.00 0.00 0.00 66 1015.1
20260510142113 22 134 0.0 3.2 0.00 0.00 0.00 70 1015.1
20260510141612 22 219 0.0 3.2 0.00 0.00 0.00 69 1015.0
20260510141112 22 219 0.0 3.2 0.00 0.00 0.00 70 1015.1
20260510140843 21 219 0.0 3.2 0.00 0.00 0.00 69 1015.1
20260510140111 21 131 0.0 3.2 0.00 0.00 0.00 71 1015.0
20260510135612 21 199 0.0 3.2 0.00 0.00 0.00 71 1015.0
20260510135116 20 208 0.0 3.2 0.00 0.00 0.00 72 1015.1
20260510135111 20 250 0.0 3.2 0.00 0.00 0.00 73 1015.0
20260510134344 20 212 0.0 3.2 0.00 0.00 0.00 74 1015.1
20260510133611 20 221 0.0 3.2 0.00 0.00 0.00 74 1015.0
20260510133344 20 136 0.0 3.2 0.00 0.00 0.00 75 1014.9
20260510132613 19 165 0.0 0.0 0.00 0.00 0.00 79 1015.0
20260510132344 18 164 0.0 0.0 0.00 0.00 0.00 83 1015.1
20260510131612 18 164 0.0 0.0 0.00 0.00 0.00 83 1015.2
20260510131112 18 164 0.0 0.0 0.00 0.00 0.00 84 1015.1
20260510130610 17 164 0.0 0.0 0.00 0.00 0.00 85 1015.0
20260510130108 17 164 0.0 0.0 0.00 0.00 0.00 87 1014.9
20260510125840 17 163 0.0 0.0 0.00 0.00 0.00 89 1014.9
20260510125339 16 164 0.0 0.0 0.00 0.00 0.00 92 1014.9
20260510124608 15 164 0.0 0.0 0.00 0.00 0.00 93 1014.9
20260510124107 15 164 0.0 0.0 0.00 0.00 0.00 97 1014.8
20260510123608 14 164 0.0 0.0 0.00 0.00 0.00 98 1014.8
20260510123107 13 164 0.0 0.0 0.00 0.00 0.00 98 1014.7
20260510122608 13 164 0.0 0.0 0.00 0.00 0.00 98 1014.6
20260510122107 12 164 0.0 0.0 0.00 0.00 0.00 98 1014.6
20260510121607 12 164 0.0 0.0 0.00 0.00 0.00 98 1014.6
20260510121108 12 164 0.0 0.0 0.00 0.00 0.00 98 1014.5
20260510120607 12 164 0.0 0.0 0.00 0.00 0.00 98 1014.5
20260510120113 11 164 0.0 0.0 0.00 0.00 0.00 98 1014.4
20260510120107 11 164 0.0 0.0 0.00 0.00 0.00 98 1014.4
20260510115336 11 164 0.0 0.0 0.00 0.00 0.00 98 1014.3
20260510114606 11 164 0.0 0.0 0.00 0.00 0.00 98 1014.3
20260510114335 10 164 0.0 0.0 0.00 0.00 0.00 98 1014.2
20260510113605 10 164 0.0 0.0 0.00 0.00 0.00 98 1014.1
20260510113106 10 164 0.0 0.0 0.00 0.00 0.00 98 1013.9
20260510112605 10 164 0.0 1.6 0.00 0.00 0.00 97 1013.9
20260510112105 10 164 0.0 3.2 0.00 0.00 0.00 98 1013.7
20260510111604 10 164 0.0 3.2 0.00 0.00 0.00 97 1013.8
20260510111105 10 110 0.0 1.6 0.00 0.00 0.00 97 1013.9
20260510110604 10 110 1.6 1.6 0.00 0.00 0.00 98 1013.6
20260510110334 10 109 1.6 3.2 0.00 0.00 0.00 98 1013.8
20260510105604 10 109 0.0 3.2 0.00 0.00 0.00 98 1013.7
20260510105104 10 170 0.0 1.6 0.00 0.00 0.00 98 1013.8
20260510104608 10 163 0.0 3.2 0.00 0.00 0.00 98 1013.4
20260510104604 10 163 0.0 1.6 0.00 0.00 0.00 98 1013.8
20260510103603 10 163 0.0 3.2 0.00 0.00 0.00 98 1013.3
20260510103102 9 202 0.0 3.2 0.00 0.00 0.00 98 1013.3
20260510102601 9 248 0.0 0.0 0.00 0.00 0.00 98 1013.3
20260510102102 9 248 0.0 0.0 0.00 0.00 0.00 97 1013.1
20260510101601 9 248 0.0 0.0 0.00 0.00 0.00 97 1013.1
20260510101101 9 248 0.0 0.0 0.00 0.00 0.00 97 1013.0
20260510100602 9 248 0.0 0.0 0.00 0.00 0.00 97 1012.9
20260510100100 9 248 0.0 0.0 0.00 0.00 0.00 97 1012.9
20260510095834 9 248 0.0 0.0 0.00 0.00 0.00 97 1012.6
20260510095101 10 248 0.0 0.0 0.00 0.00 0.00 97 1012.5
20260510094601 10 248 0.0 0.0 0.00 0.00 0.00 97 1012.4
20260510094106 10 248 0.0 0.0 0.00 0.00 0.00 97 1012.2
20260510094102 10 248 0.0 0.0 0.00 0.00 0.00 97 1012.4
20260510093329 10 248 0.0 0.0 0.00 0.00 0.00 97 1012.3
20260510092559 10 248 0.0 0.0 0.00 0.00 0.00 96 1012.2
20260510092100 10 248 0.0 0.0 0.00 0.00 0.00 97 1012.3
20260510091831 10 248 0.0 0.0 0.00 0.00 0.00 97 1012.3
20260510091100 10 248 0.0 0.0 0.00 0.00 0.00 97 1012.3
20260510090600 10 248 0.0 0.0 0.00 0.00 0.00 96 1012.4
20260510090100 10 248 0.0 0.0 0.00 0.00 0.00 96 1012.3
20260510085559 10 248 0.0 0.0 0.00 0.00 0.00 96 1012.2
20260510085100 10 248 0.0 0.0 0.00 0.00 0.00 97 1012.1
20260510084557 10 248 0.0 0.0 0.00 0.00 0.00 96 1012.1
20260510084057 10 248 0.0 0.0 0.00 0.00 0.00 97 1012.0
20260510083557 10 248 0.0 0.0 0.00 0.00 0.00 96 1012.0
20260510083329 10 248 0.0 0.0 0.00 0.00 0.00 96 1011.9
20260510082558 10 248 0.0 0.0 0.00 0.00 0.00 96 1011.8
20260510082058 10 248 0.0 0.0 0.00 0.00 0.00 96 1011.8
20260510081558 10 248 0.0 0.0 0.00 0.00 0.00 96 1011.7
20260510081058 10 248 0.0 0.0 0.00 0.00 0.00 96 1011.7
20260510080556 10 248 0.0 0.0 0.00 0.00 0.00 96 1011.6
20260510080057 10 248 0.0 0.0 0.00 0.00 0.00 96 1011.7
20260510075827 10 248 0.0 0.0 0.00 0.00 0.00 96 1011.7
20260510075058 10 248 0.0 0.0 0.00 0.00 0.00 95 1011.7
20260510074557 10 248 0.0 0.0 0.00 0.00 0.00 95 1011.7
20260510074058 11 248 0.0 0.0 0.00 0.00 0.00 96 1011.8
20260510073557 11 248 0.0 0.0 0.00 0.00 0.00 96 1011.8
20260510073055 11 248 0.0 0.0 0.00 0.00 0.00 96 1011.8
20260510072556 11 248 0.0 0.0 0.00 0.00 0.00 95 1011.8
20260510072325 11 248 0.0 0.0 0.00 0.00 0.00 96 1011.7
20260510071555 11 248 0.0 0.0 0.00 0.00 0.00 96 1011.8
20260510071052 11 248 0.0 0.0 0.00 0.00 0.00 96 1011.9
20260510070553 11 248 0.0 0.0 0.00 0.00 0.00 96 1011.8
20260510070053 11 248 0.0 0.0 0.00 0.00 0.00 95 1011.6
20260510065554 11 248 0.0 0.0 0.00 0.00 0.00 95 1011.6
20260510065052 11 248 0.0 0.0 0.00 0.00 0.00 95 1011.5
20260510064552 11 248 0.0 0.0 0.00 0.00 0.00 95 1011.6
20260510064054 11 248 0.0 0.0 0.00 0.00 0.00 94 1011.5
20260510063826 11 248 0.0 0.0 0.00 0.00 0.00 95 1011.5
20260510063054 11 248 0.0 0.0 0.00 0.00 0.00 95 1011.4
20260510062552 11 248 0.0 0.0 0.00 0.00 0.00 95 1011.5
20260510062053 11 248 0.0 0.0 0.00 0.00 0.00 94 1011.5
20260510061552 11 248 0.0 0.0 0.00 0.00 0.00 94 1011.4
20260510061053 11 248 0.0 0.0 0.00 0.00 0.00 94 1011.4
20260510060552 11 248 0.0 0.0 0.00 0.00 0.00 94 1011.5
20260510060053 11 248 0.0 0.0 0.00 0.00 0.00 94 1011.5
20260510055823 11 248 0.0 0.0 0.00 0.00 0.00 94 1011.6
20260510055053 11 248 0.0 0.0 0.00 0.00 0.00 93 1011.5
20260510054553 11 248 0.0 0.0 0.00 0.00 0.00 93 1011.4
20260510054054 11 248 0.0 0.0 0.00 0.00 0.00 93 1011.4
20260510053552 11 248 0.0 0.0 0.00 0.00 0.00 93 1011.4
20260510053326 11 248 0.0 0.0 0.00 0.00 0.00 93 1011.4
20260510052554 11 248 0.0 0.0 0.00 0.00 0.00 92 1011.4
20260510052054 11 248 0.0 0.0 0.00 0.00 0.00 93 1011.3
20260510051552 11 248 0.0 0.0 0.00 0.00 0.00 93 1011.2
20260510051325 11 248 0.0 0.0 0.00 0.00 0.00 93 1011.3
20260510050553 11 248 0.0 0.0 0.00 0.00 0.00 92 1011.3
20260510050054 11 248 0.0 0.0 0.00 0.00 0.00 92 1011.3
20260510045552 11 248 0.0 0.0 0.00 0.00 0.00 92 1011.3
20260510045051 11 248 0.0 0.0 0.00 0.00 0.00 92 1011.2
20260510044550 11 248 0.0 0.0 0.00 0.00 0.00 92 1011.2
20260510044050 11 248 0.0 0.0 0.00 0.00 0.00 92 1011.2
20260510043549 11 248 0.0 0.0 0.00 0.00 0.00 92 1011.2
20260510043049 11 248 0.0 0.0 0.00 0.00 0.00 91 1011.3
20260510042822 11 248 0.0 0.0 0.00 0.00 0.00 91 1011.3
20260510042049 11 248 0.0 0.0 0.00 0.00 0.00 91 1011.3
20260510041549 11 248 0.0 0.0 0.00 0.00 0.00 91 1011.2
20260510041050 11 248 0.0 0.0 0.00 0.00 0.00 91 1011.3
20260510040819 11 248 0.0 0.0 0.00 0.00 0.00 90 1011.2
20260510040324 12 248 0.0 0.0 0.00 0.00 0.00 90 1011.3
20260510040048 12 248 0.0 0.0 0.00 0.00 0.00 90 1011.3
20260510035047 12 248 0.0 0.0 0.00 0.00 0.00 89 1011.3
20260510034547 12 248 0.0 0.0 0.00 0.00 0.00 89 1011.3
20260510034047 12 248 0.0 0.0 0.00 0.00 0.00 89 1011.3
20260510033547 12 248 0.0 0.0 0.00 0.00 0.00 89 1011.3
20260510033048 12 248 0.0 0.0 0.00 0.00 0.00 89 1011.3
20260510032548 12 248 0.0 0.0 0.00 0.00 0.00 89 1011.3
20260510032047 12 248 0.0 0.0 0.00 0.00 0.00 89 1011.3
20260510031818 12 248 0.0 0.0 0.00 0.00 0.00 89 1011.4
20260510031044 12 248 0.0 0.0 0.00 0.00 0.00 89 1011.4
20260510030817 12 248 0.0 0.0 0.00 0.00 0.00 89 1011.4
20260510030046 12 248 0.0 0.0 0.00 0.00 0.00 88 1011.3
20260510025546 12 248 0.0 0.0 0.00 0.00 0.00 87 1011.3
20260510025046 13 248 0.0 0.0 0.00 0.00 0.00 87 1011.2
20260510024545 13 248 0.0 0.0 0.00 0.00 0.00 86 1011.2
20260510024045 13 248 0.0 0.0 0.00 0.00 0.00 86 1011.1
20260510023544 13 248 0.0 0.0 0.00 0.00 0.00 85 1011.1
20260510023046 13 248 0.0 0.0 0.00 0.00 0.00 85 1011.0
20260510022545 13 248 0.0 0.0 0.00 0.00 0.00 85 1011.0
20260510022046 13 248 0.0 0.0 0.00 0.00 0.00 84 1010.9
20260510021550 13 248 0.0 0.0 0.00 0.00 0.00 84 1010.8
20260510021546 13 248 0.0 0.0 0.00 0.00 0.00 84 1010.9
20260510020544 13 248 0.0 0.0 0.00 0.00 0.00 83 1010.8
20260510020046 14 248 0.0 0.0 0.00 0.00 0.00 82 1010.7
20260510015545 14 248 0.0 0.0 0.00 0.00 0.00 82 1010.6
20260510015044 14 248 0.0 0.0 0.00 0.00 0.00 82 1010.5
20260510014544 14 248 0.0 0.0 0.00 0.00 0.00 81 1010.4
20260510014043 15 248 0.0 0.0 0.00 0.00 0.00 79 1010.3
20260510013542 15 248 0.0 0.0 0.00 0.00 0.00 78 1010.3
20260510013040 15 248 0.0 0.0 0.00 0.00 0.00 78 1010.2
20260510012542 15 248 0.0 0.0 0.00 0.00 0.00 78 1010.2
20260510012041 16 248 0.0 0.0 0.00 0.00 0.00 77 1010.1
20260510011542 16 248 0.0 0.0 0.00 0.00 0.00 76 1010.0
20260510011040 16 248 0.0 0.0 0.00 0.00 0.00 75 1010.0
20260510010541 16 248 0.0 0.0 0.00 0.00 0.00 75 1009.9
20260510010041 17 248 0.0 0.0 0.00 0.00 0.00 74 1009.9
20260510005541 17 248 0.0 0.0 0.00 0.00 0.00 73 1009.8
20260510005312 17 248 0.0 0.0 0.00 0.00 0.00 72 1009.7
20260510004540 18 248 0.0 0.0 0.00 0.00 0.00 72 1009.7
20260510004042 18 248 0.0 0.0 0.00 0.00 0.00 71 1009.7
20260510003542 19 248 0.0 0.0 0.00 0.00 0.00 70 1009.6
20260510003040 20 248 0.0 0.0 0.00 0.00 0.00 68 1009.6
20260510002814 20 248 0.0 0.0 0.00 0.00 0.00 65 1009.5
20260510002041 21 248 0.0 0.0 0.00 0.00 0.00 62 1009.5
20260510001541 21 248 0.0 0.0 0.00 0.00 0.00 60 1009.5
20260510001040 22 248 0.0 1.6 0.00 0.00 0.00 58 1009.4
20260510000540 23 248 0.0 1.6 0.00 0.00 0.00 57 1009.4
20260510000040 24 248 0.0 1.6 0.00 0.00 0.00 53 1009.4
20260509235819 26 248 0.0 1.6 0.00 0.00 0.00 49 1009.3
20260509235540 25 248 0.0 1.6 0.00 0.00 0.00 51 1009.4
20260509234541 26 248 0.0 0.0 0.00 0.00 0.00 50 1009.2
20260509234041 27 248 0.0 0.0 0.00 0.00 0.00 47 1009.1
20260509233542 28 248 0.0 0.0 0.00 0.00 0.00 48 1009.1
20260509233040 28 248 0.0 0.0 0.00 0.00 0.00 47 1009.0
20260509232541 28 248 0.0 0.0 0.00 0.00 0.00 48 1009.1
20260509232040 28 248 0.0 1.6 0.00 0.00 0.00 46 1009.1
20260509231538 29 248 0.0 1.6 0.00 0.00 0.00 46 1009.1
20260509231044 30 248 0.0 1.6 0.00 0.00 0.00 44 1009.2
20260509231039 30 248 0.0 1.6 0.00 0.00 0.00 42 1009.1
20260509230039 30 248 0.0 1.6 0.00 0.00 0.00 39 1009.2
20260509225538 31 248 0.0 0.0 0.00 0.00 0.00 38 1009.2
20260509225039 30 248 0.0 1.6 0.00 0.00 0.00 42 1009.2
20260509224538 30 248 0.0 3.2 0.00 0.00 0.00 40 1009.2
20260509224037 30 248 0.0 3.2 0.00 0.00 0.00 36 1009.2
20260509223808 29 217 0.0 1.6 0.00 0.00 0.00 36 1009.1
20260509223035 29 217 0.0 1.6 0.00 0.00 0.00 32 1009.1
20260509222807 29 217 0.0 1.6 0.00 0.00 0.00 33 1009.2
20260509222036 28 217 0.0 3.2 0.00 0.00 0.00 31 1009.2
20260509221536 28 266 0.0 3.2 0.00 0.00 0.00 33 1009.2
20260509221032 28 92 0.0 3.2 0.00 0.00 0.00 34 1009.2
20260509220533 28 101 0.0 3.2 0.00 0.00 0.00 34 1009.2
20260509220033 28 230 0.0 3.2 0.00 0.00 0.00 32 1009.1
20260509215530 28 18 0.0 3.2 0.00 0.00 0.00 36 1009.1
20260509215031 28 263 0.0 3.2 0.00 0.00 0.00 37 1009.1
20260509214530 28 263 0.0 3.2 0.00 0.00 0.00 36 1009.0
20260509214029 28 260 0.0 3.2 0.00 0.00 0.00 35 1009.0
20260509213530 27 270 1.6 4.8 0.00 0.00 0.00 39 1009.0
20260509213028 27 276 1.6 4.8 0.00 0.00 0.00 40 1008.9
20260509212528 27 219 1.6 4.8 0.00 0.00 0.00 39 1008.9
20260509212259 28 232 0.0 3.2 0.00 0.00 0.00 38 1008.9
20260509211528 27 123 1.6 3.2 0.00 0.00 0.00 36 1008.9
20260509211302 27 250 1.6 3.2 0.00 0.00 0.00 42 1008.8
20260509210529 27 280 1.6 4.8 0.00 0.00 0.00 44 1008.9
20260509210026 27 245 0.0 4.8 0.00 0.00 0.00 44 1008.8
20260509205756 27 276 1.6 4.8 0.00 0.00 0.00 44 1008.9